CW3744 Weather Reports


time (UTC)temp
C
wind
direction
speed
KPH
gust
KPH
rain 1hr
cm
rain 24hr
cm
rain mn
cm
humidity
%
barometer
mb
20260510130036 20 250 0.0 6.4 0.00 0.58 0.08 96 1017.3
20260510124534 20 238 0.0 3.2 0.00 0.58 0.08 97 1017.1
20260510123003 20 337 0.0 0.0 0.00 0.58 0.08 97 1016.9
20260510121540 20 336 0.0 0.0 0.00 0.58 0.08 97 1016.7
20260510120024 20 336 0.0 3.2 0.00 0.58 0.08 97 1016.8
20260510114544 20 336 1.6 8.0 0.00 0.58 0.08 97 1016.6
20260510113011 20 327 3.2 9.7 0.00 0.58 0.08 97 1016.2
20260510111545 20 322 1.6 6.4 0.00 0.58 0.08 97 1016.2
20260510110029 20 311 3.2 9.7 0.00 0.58 0.08 97 1016.0
20260510104557 20 341 1.6 8.0 0.00 0.58 0.08 97 1015.7
20260510103025 20 325 1.6 4.8 0.00 0.58 0.08 97 1015.8
20260510101543 20 340 0.0 6.4 0.00 0.58 0.08 97 1015.4
20260510100024 20 317 8.0 11.3 0.00 0.58 0.08 97 1015.2
20260510094555 20 343 4.8 9.7 0.00 0.58 0.08 97 1015.1
20260510093031 21 44 0.0 1.6 0.00 0.58 0.08 97 1014.8
20260510091506 21 45 0.0 1.6 0.00 0.58 0.08 97 1014.8
20260510090029 20 45 0.0 0.0 0.00 0.58 0.08 97 1014.7
20260510084541 20 45 0.0 0.0 0.00 0.58 0.08 97 1014.4
20260510083030 20 45 0.0 1.6 0.03 0.58 0.08 97 1014.0
20260510081556 20 45 0.0 3.2 0.08 0.58 0.08 97 1014.1
20260510080003 20 44 0.0 1.6 0.08 0.58 0.08 97 1014.8
20260510074537 20 44 0.0 3.2 0.08 0.58 0.08 97 1014.3
20260510073011 20 47 0.0 3.2 0.05 0.56 0.05 97 1013.9
20260510071543 20 3 0.0 3.2 0.00 0.51 0.00 97 1013.1
20260510070014 20 288 0.0 0.0 0.00 0.51 0.00 97 1014.7
20260510064551 20 288 0.0 0.0 0.00 0.51 0.00 97 1014.2
20260510063019 20 288 0.0 0.0 0.00 0.51 0.00 97 1014.3
20260510061555 20 288 0.0 0.0 0.00 0.51 0.00 97 1014.4
20260510060032 20 288 0.0 0.0 0.00 0.51 0.00 97 1014.7
20260510054600 20 288 0.0 0.0 0.00 0.51 0.00 97 1014.7
20260510054503 20 288 0.0 0.0 0.00 0.51 0.00 97 1014.8
20260510053039 20 288 0.0 0.0 0.00 0.51 0.00 97 1015.0
20260510051512 20 288 0.0 0.0 0.00 0.51 0.00 97 1015.2
20260510050042 20 288 0.0 0.0 0.00 0.51 0.00 97 1015.4
20260510044552 20 288 0.0 0.0 0.00 0.51 0.00 97 1015.4
20260510043010 20 288 0.0 0.0 0.03 0.51 0.00 97 1015.5
20260510041546 20 288 0.0 0.0 0.03 0.51 0.00 96 1015.3
20260510040021 20 288 0.0 0.0 0.03 0.56 0.51 96 1015.4
20260510034552 20 288 0.0 0.0 0.03 0.56 0.51 96 1015.4
20260510033031 20 290 0.0 1.6 0.00 0.53 0.48 96 1015.5
20260510031600 20 290 0.0 0.0 0.00 0.53 0.48 96 1015.0
20260510031503 20 290 0.0 0.0 0.00 0.53 0.48 96 1015.0
20260510030025 20 290 0.0 3.2 0.00 0.56 0.48 96 1015.1
20260510024604 20 291 0.0 0.0 0.00 0.56 0.48 96 1014.8
20260510023034 20 291 0.0 3.2 0.00 0.56 0.48 96 1014.9
20260510021555 20 288 1.6 6.4 0.00 0.56 0.48 96 1014.7
20260510020024 20 286 0.0 1.6 0.00 0.64 0.48 96 1014.7
20260510014504 20 286 0.0 1.6 0.00 0.64 0.48 96 1014.6
20260510013046 20 286 1.6 6.4 0.00 0.64 0.48 96 1014.3
20260510011521 21 257 0.0 6.4 0.03 0.64 0.48 96 1014.2
20260510010055 21 215 0.0 3.2 0.03 0.71 0.48 96 1013.9
20260510004535 21 207 0.0 1.6 0.03 0.71 0.48 96 1013.9
20260510003010 21 160 0.0 3.2 0.05 0.71 0.48 96 1013.8
20260510001537 21 182 0.0 8.0 0.05 0.69 0.46 96 1014.1
20260510000056 21 96 0.0 3.2 0.08 0.69 0.46 96 1014.1
20260509234542 21 60 0.0 0.0 0.08 0.69 0.46 95 1014.1
20260509233057 21 215 0.0 3.2 0.05 0.66 0.43 95 1013.9
20260509231529 21 162 0.0 6.4 0.03 0.64 0.41 95 1014.3
20260509230004 21 144 0.0 0.0 0.03 0.61 0.38 95 1014.2
20260509224554 21 143 0.0 1.6 0.05 0.61 0.38 95 1014.1
20260509223022 21 159 3.2 6.4 0.05 0.61 0.38 95 1013.7
20260509221600 21 11 0.0 0.0 0.05 0.61 0.38 95 1013.5
20260509221502 21 11 0.0 0.0 0.05 0.61 0.38 95 1013.6
20260509220034 21 11 0.0 1.6 0.05 0.58 0.36 95 1013.8
20260509214509 21 358 0.0 4.8 0.05 0.56 0.33 95 1013.8
20260509213047 21 321 0.0 0.0 0.10 0.56 0.33 95 1013.7
20260509211528 21 320 0.0 0.0 0.23 0.56 0.33 95 1013.8
20260509210104 21 319 0.0 6.4 0.28 0.53 0.30 95 1014.0
20260509204540 21 317 4.8 12.9 0.28 0.51 0.28 94 1014.2
20260509203012 21 315 8.0 11.3 0.20 0.43 0.20 93 1014.5
20260509201543 21 316 6.4 12.9 0.10 0.33 0.10 93 1014.5
20260509200014 21 314 8.0 16.1 0.03 0.25 0.03 93 1014.4
20260509194538 21 315 8.0 19.3 0.00 0.23 0.00 93 1014.2
20260509193055 22 325 11.3 19.3 0.00 0.23 0.00 92 1014.2
20260509191515 22 319 12.9 24.1 0.00 0.23 0.00 89 1014.1
20260509190048 22 323 14.5 22.5 0.00 0.23 0.00 89 1013.9
20260509184524 24 310 17.7 24.1 0.00 0.23 0.00 84 1014.0
20260509183048 26 329 4.8 11.3 0.00 0.23 0.00 74 1013.6
20260509181528 27 163 4.8 14.5 0.00 0.23 0.00 73 1013.6
20260509180114 27 314 0.0 6.4 0.00 0.23 0.00 74 1013.7
20260509174531 27 151 0.0 8.0 0.00 0.23 0.00 72 1013.7
20260509173106 27 178 1.6 9.7 0.00 0.23 0.00 71 1013.9
20260509171534 28 190 1.6 9.7 0.00 0.23 0.00 69 1014.0
20260509170004 27 184 1.6 11.3 0.00 0.23 0.00 72 1014.1
20260509164528 27 171 1.6 6.4 0.00 0.23 0.00 72 1014.0
20260509163052 26 190 3.2 11.3 0.00 0.23 0.00 75 1014.2
20260509161521 26 151 3.2 9.7 0.00 0.23 0.00 74 1014.2
20260509160052 26 147 3.2 9.7 0.00 0.23 0.00 75 1014.2
20260509154515 25 34 1.6 8.0 0.00 0.23 0.00 78 1014.1
20260509153032 24 336 3.2 6.4 0.00 0.23 0.00 80 1014.5
20260509151607 23 328 0.0 6.4 0.00 0.23 0.00 82 1014.6
20260509150026 23 329 0.0 6.4 0.00 0.23 0.00 83 1014.9
20260509144551 22 337 1.6 6.4 0.00 0.23 0.00 84 1015.2
20260509143021 22 317 3.2 11.3 0.00 0.23 0.00 85 1015.1
20260509141555 22 329 3.2 8.0 0.00 0.23 0.00 83 1014.8
20260509140021 22 288 1.6 8.0 0.00 0.23 0.00 86 1014.8
20260509134551 22 321 0.0 8.0 0.00 0.23 0.00 86 1014.6
20260509133025 22 340 1.6 6.4 0.00 0.23 0.00 87 1014.5
20260509131558 21 346 1.6 8.0 0.00 0.23 0.00 88 1014.4